Total_Precipitation_Accumulation
0.09 0.26 0.41 0.48 0.80 0.45 0.08 0.05 0.06 0.06 0.05 0.03 0.02 0.03 0.05 0.09 0.23 0.50 0.28 0.11 0.06 0.07 0.18 0.25 0.39 0.41 0.35 0.31 0.40 0.51 0.62 0.73 0.74 0.67 0.56 0.36 0.29 0.23 0.23 0.23 0.25 0.25 0.21 0.26 0.30 0.35 0.34 0.30 0.26
0.19 0.39 0.54 0.93 0.85 0.17 0.07 0.08 0.10 0.09 0.07 0.07 0.03 0.02 0.03 0.05 0.08 0.18 0.26 0.23 0.08 0.06 0.14 0.23 0.35 0.43 0.40 0.44 0.56 0.62 0.67 0.71 0.66 0.57 0.43 0.32 0.28 0.25 0.25 0.31 0.32 0.26 0.22 0.25 0.29 0.40 0.36 0.29 0.26
0.23 0.37 0.63 0.93 0.34 0.09 0.11 0.13 0.14 0.11 0.07 0.05 0.03 0.02 0.03 0.07 0.11 0.21 0.25 0.20 0.11 0.08 0.16 0.26 0.37 0.44 0.45 0.50 0.59 0.66 0.66 0.62 0.57 0.52 0.40 0.32 0.27 0.24 0.26 0.30 0.32 0.28 0.20 0.18 0.24 0.28 0.27 0.26 0.20
0.28 0.54 0.76 0.54 0.15 0.11 0.13 0.17 0.14 0.08 0.04 0.03 0.02 0.03 0.05 0.08 0.15 0.23 0.25 0.23 0.20 0.19 0.23 0.28 0.43 0.47 0.46 0.58 0.63 0.65 0.58 0.51 0.54 0.51 0.42 0.33 0.24 0.23 0.28 0.26 0.23 0.17 0.13 0.14 0.20 0.23 0.23 0.22 0.15
0.34 0.73 0.83 0.40 0.21 0.19 0.17 0.13 0.08 0.06 0.05 0.04 0.04 0.05 0.12 0.12 0.19 0.26 0.30 0.30 0.31 0.38 0.44 0.40 0.50 0.47 0.46 0.59 0.67 0.66 0.67 0.64 0.64 0.61 0.53 0.45 0.33 0.28 0.28 0.22 0.15 0.09 0.10 0.15 0.27 0.31 0.21 0.17 0.15
0.55 0.96 1.20 0.65 0.36 0.27 0.22 0.15 0.08 0.06 0.05 0.05 0.07 0.11 0.17 0.19 0.26 0.33 0.38 0.44 0.47 0.47 0.47 0.47 0.59 0.57 0.55 0.61 0.65 0.60 0.65 0.76 0.78 0.69 0.65 0.79 0.57 0.40 0.28 0.20 0.12 0.07 0.09 0.13 0.21 0.25 0.18 0.16 0.20
0.67 1.11 1.06 0.60 0.37 0.42 0.28 0.15 0.10 0.10 0.10 0.10 0.09 0.17 0.21 0.27 0.26 0.30 0.37 0.43 0.44 0.43 0.44 0.45 0.53 0.59 0.60 0.68 0.76 0.75 0.76 0.84 0.89 0.75 0.74 0.80 0.54 0.33 0.23 0.19 0.14 0.10 0.08 0.10 0.12 0.16 0.18 0.19 0.24
0.30 0.63 0.73 0.57 0.44 0.42 0.25 0.11 0.07 0.07 0.08 0.10 0.11 0.16 0.34 0.38 0.31 0.36 0.41 0.46 0.48 0.49 0.50 0.46 0.50 0.62 0.74 0.76 0.75 0.85 0.91 0.89 0.94 0.82 0.77 0.69 0.43 0.28 0.23 0.17 0.15 0.15 0.13 0.13 0.14 0.16 0.16 0.16 0.20
0.30 0.52 0.82 0.80 0.49 0.34 0.23 0.15 0.09 0.07 0.08 0.09 0.09 0.11 0.20 0.28 0.32 0.43 0.50 0.50 0.54 0.56 0.58 0.54 0.48 0.51 0.65 0.76 0.71 0.92 1.01 0.98 0.90 0.85 0.83 0.71 0.44 0.34 0.29 0.20 0.21 0.20 0.21 0.21 0.21 0.19 0.14 0.10 0.11
0.42 0.64 0.86 0.64 0.41 0.25 0.19 0.15 0.11 0.09 0.12 0.10 0.08 0.11 0.16 0.24 0.33 0.42 0.45 0.49 0.53 0.54 0.49 0.49 0.48 0.46 0.48 0.56 0.82 1.16 1.03 0.94 0.78 0.80 0.74 0.72 0.64 0.54 0.39 0.34 0.38 0.37 0.32 0.29 0.26 0.23 0.14 0.06 0.05
0.40 0.45 0.49 0.52 0.31 0.17 0.13 0.12 0.11 0.09 0.12 0.11 0.11 0.13 0.17 0.23 0.29 0.30 0.35 0.40 0.44 0.48 0.47 0.44 0.42 0.41 0.44 0.58 0.71 0.92 1.00 0.99 0.86 0.74 0.73 0.80 0.73 0.58 0.43 0.34 0.36 0.39 0.40 0.33 0.27 0.20 0.11 0.07 0.08
0.37 0.28 0.23 0.26 0.18 0.14 0.13 0.11 0.10 0.10 0.12 0.10 0.12 0.15 0.21 0.26 0.27 0.26 0.31 0.39 0.44 0.47 0.51 0.50 0.42 0.42 0.45 0.50 0.50 0.59 0.66 0.70 0.68 0.62 0.63 0.75 0.69 0.60 0.53 0.48 0.40 0.38 0.37 0.38 0.34 0.25 0.17 0.12 0.09
0.27 0.19 0.16 0.17 0.16 0.15 0.14 0.13 0.11 0.11 0.11 0.10 0.14 0.20 0.26 0.28 0.28 0.29 0.30 0.34 0.39 0.42 0.48 0.49 0.46 0.43 0.43 0.44 0.44 0.43 0.54 0.57 0.59 0.62 0.59 0.61 0.64 0.61 0.56 0.50 0.51 0.51 0.46 0.45 0.39 0.29 0.23 0.17 0.11
0.20 0.16 0.15 0.14 0.14 0.17 0.15 0.12 0.11 0.14 0.12 0.11 0.13 0.17 0.20 0.25 0.29 0.30 0.32 0.33 0.33 0.36 0.44 0.46 0.47 0.49 0.47 0.44 0.45 0.47 0.54 0.59 0.58 0.52 0.51 0.55 0.55 0.55 0.61 0.62 0.60 0.60 0.58 0.61 0.55 0.35 0.29 0.26 0.18
0.18 0.17 0.17 0.15 0.14 0.18 0.15 0.14 0.14 0.16 0.14 0.13 0.12 0.13 0.15 0.19 0.23 0.29 0.33 0.33 0.34 0.38 0.44 0.46 0.49 0.55 0.55 0.53 0.55 0.51 0.57 0.59 0.59 0.60 0.60 0.64 0.63 0.64 0.69 0.75 0.74 0.71 0.66 0.67 0.84 0.69 0.37 0.28 0.23
0.25 0.26 0.29 0.19 0.18 0.19 0.19 0.17 0.16 0.19 0.17 0.17 0.16 0.15 0.15 0.17 0.20 0.22 0.25 0.30 0.33 0.41 0.50 0.57 0.51 0.54 0.59 0.62 0.67 0.68 0.70 0.72 0.68 0.68 0.70 0.72 0.75 0.77 0.82 0.84 0.74 0.79 0.82 0.81 0.92 0.94 0.58 0.34 0.28
0.26 0.30 0.29 0.22 0.18 0.17 0.19 0.17 0.17 0.20 0.17 0.15 0.17 0.16 0.15 0.15 0.16 0.16 0.17 0.21 0.29 0.41 0.53 0.61 0.58 0.58 0.67 0.77 0.85 0.87 0.84 0.85 0.83 0.84 0.80 0.82 0.86 0.92 0.96 0.94 0.90 0.89 0.87 0.93 0.91 1.03 0.92 0.64 0.44
0.33 0.26 0.19 0.16 0.16 0.16 0.17 0.16 0.16 0.19 0.16 0.14 0.14 0.14 0.13 0.12 0.15 0.15 0.13 0.14 0.20 0.32 0.45 0.59 0.72 0.83 0.90 0.97 1.06 1.11 1.04 0.99 1.03 1.07 1.04 1.05 1.10 1.07 1.11 1.11 1.13 1.18 1.13 1.06 0.97 1.06 1.07 0.83 0.69
0.25 0.22 0.18 0.12 0.13 0.11 0.10 0.11 0.13 0.16 0.17 0.15 0.12 0.12 0.11 0.10 0.09 0.09 0.09 0.14 0.20 0.29 0.38 0.54 0.88 1.30 1.48 1.39 1.37 1.46 1.58 1.58 1.49 1.47 1.44 1.49 1.49 1.48 1.51 1.47 1.43 1.36 1.28 1.31 1.26 1.39 1.66 1.18 0.89
0.24 0.26 0.22 0.16 0.11 0.09 0.07 0.07 0.08 0.10 0.12 0.13 0.12 0.13 0.13 0.11 0.08 0.06 0.08 0.11 0.17 0.32 0.47 0.59 0.85 1.29 1.49 1.60 1.72 1.94 2.14 2.06 1.94 1.92 1.87 1.94 1.94 2.09 2.07 2.03 1.98 1.83 1.78 1.78 1.68 1.66 1.86 1.48 1.17
0.28 0.29 0.25 0.20 0.12 0.09 0.07 0.06 0.07 0.09 0.09 0.09 0.11 0.14 0.14 0.12 0.11 0.11 0.10 0.14 0.18 0.27 0.39 0.53 0.71 1.00 1.32 1.58 1.87 2.19 2.43 2.42 2.31 2.14 2.12 2.16 2.21 2.35 2.47 2.45 2.47 2.27 2.09 2.07 2.00 1.91 1.95 1.93 1.59
0.21 0.15 0.11 0.09 0.10 0.09 0.07 0.10 0.10 0.12 0.13 0.12 0.13 0.13 0.15 0.15 0.14 0.16 0.16 0.16 0.18 0.23 0.30 0.43 0.61 0.87 1.11 1.35 1.78 2.23 2.55 2.67 2.59 2.47 2.42 2.37 2.39 2.42 2.60 2.62 2.70 2.53 2.38 2.29 2.22 2.01 2.03 2.24 2.07
0.11 0.07 0.06 0.07 0.08 0.07 0.06 0.09 0.12 0.13 0.16 0.16 0.16 0.16 0.16 0.16 0.17 0.20 0.20 0.22 0.24 0.22 0.26 0.38 0.54 0.78 1.02 1.24 1.61 2.04 2.34 2.57 2.74 2.55 2.42 2.43 2.45 2.45 2.55 2.69 2.76 2.62 2.48 2.40 2.50 2.34 2.25 2.11 1.98
0.06 0.06 0.05 0.05 0.07 0.07 0.05 0.11 0.19 0.18 0.17 0.15 0.14 0.15 0.17 0.19 0.24 0.27 0.35 0.39 0.39 0.33 0.36 0.45 0.54 0.67 0.84 0.99 1.22 1.47 1.82 2.12 2.47 2.44 2.37 2.48 2.45 2.31 2.23 2.40 2.59 2.53 2.53 2.52 2.57 2.59 2.52 2.44 2.35
0.03 0.08 0.12 0.12 0.13 0.11 0.08 0.18 0.29 0.25 0.19 0.18 0.18 0.18 0.20 0.22 0.26 0.34 0.47 0.51 0.53 0.46 0.43 0.45 0.55 0.60 0.66 0.77 0.90 1.06 1.33 1.53 1.90 2.21 2.19 2.10 2.13 2.12 2.11 2.14 2.17 2.18 2.29 2.44 2.67 2.61 2.46 2.41 2.43
0.04 0.09 0.17 0.19 0.19 0.19 0.19 0.34 0.42 0.31 0.23 0.21 0.19 0.20 0.23 0.27 0.34 0.50 0.65 0.68 0.68 0.60 0.53 0.52 0.60 0.63 0.65 0.70 0.72 0.82 0.98 1.11 1.28 1.50 1.61 1.64 1.68 1.84 1.87 1.97 1.97 1.99 2.08 2.18 2.31 2.35 2.32 2.25 2.20
0.07 0.10 0.13 0.20 0.18 0.20 0.30 0.46 0.43 0.27 0.25 0.27 0.27 0.28 0.37 0.47 0.55 0.67 0.81 0.83 0.75 0.69 0.61 0.60 0.64 0.73 0.73 0.72 0.73 0.83 0.88 0.92 1.03 1.06 1.21 1.39 1.42 1.44 1.48 1.55 1.65 1.78 1.88 1.96 2.11 2.17 2.16 2.15 2.13
0.06 0.10 0.17 0.28 0.33 0.31 0.33 0.45 0.47 0.37 0.37 0.37 0.42 0.44 0.55 0.66 0.74 0.82 0.95 0.97 0.83 0.71 0.61 0.59 0.61 0.73 0.92 1.03 0.99 0.93 0.99 1.06 1.28 1.31 1.15 1.14 1.30 1.33 1.31 1.31 1.39 1.57 1.73 1.81 1.87 1.95 2.04 2.03 2.04
0.14 0.21 0.27 0.35 0.38 0.49 0.58 0.63 0.58 0.57 0.58 0.59 0.62 0.65 0.74 0.86 0.87 0.84 0.91 0.98 0.87 0.68 0.61 0.56 0.56 0.67 0.82 0.87 0.93 0.91 0.95 1.05 1.34 1.55 1.48 1.30 1.28 1.28 1.23 1.14 1.19 1.33 1.46 1.56 1.64 1.72 1.75 1.76 1.87
0.23 0.34 0.50 0.69 0.66 0.62 0.75 0.79 0.64 0.58 0.62 0.64 0.64 0.63 0.67 0.79 0.80 0.81 0.83 0.80 0.70 0.56 0.49 0.47 0.48 0.59 0.71 0.70 0.76 0.83 0.83 0.92 1.05 1.17 1.19 1.12 1.03 0.98 1.01 1.04 1.03 1.11 1.25 1.33 1.34 1.41 1.47 1.52 1.61